User: anonymous   Login
Location: Unspecified
(0.0000°N, 0.0000°E)
Time: 01:13:24
(UTC+00:00)
Language:

3CAT-2 - Orbit

View from above orbital plane
View from above orbital plane
View from above satellite
View from above satellite

Ground track
Ground track

The orbit data is extracted from the following two-line orbital elements,

1 41732U 16051B   18016.46150819  .00001077  00000-0  45113-4 0  9993
2 41732  97.3771 295.3536 0011941 238.2423 182.2627 15.25658341 79044
Epoch (UTC): 16 January 2018 11:04:34
Eccentricity: 0.0011941
inclination: 97.3771°
perigee height: 480 km
apogee height: 497 km
right ascension of ascending node: 295.3536°
argument of perigee: 238.2423°
revolutions per day: 15.25658341
mean anomaly at epoch: 182.2627°
orbit number at epoch: 7904

The dashed part of the orbit path shows where the satellite is in the earth's shadow,  

DLR